Details From KPNS - Pensacola Rgnl
To MZBZ - Philip S W Goldson Intl
Flight Number -
Tags decoded
Created
Modified
Stats Distance 848 nm / 1,571 km
Max Altitude 0 ft / 0 m
Waypoints 8
Social Downloads 0
Likes 0
Share VATSIM

Download

Looking for another format? Having issues loading an existing format? Contact us
Advertisement - Login to hide

Notes

Requested: KPNS HOOCK L333 PISAD UM215 NUDIS UL214 CUN B881 LIDEK UB881 CZM B764 DAXUM UB764 ANEPU B764 TAMDA MZBZ Unmatched points: L333 UM215 UL214 B881 LIDEK UB881 B764 DAXUM UB764 ANEPU B764

Route

KPNS HOOCK PISAD NUDIS CUN CZM TAMDA MZBZ

ID Type Via Altitude Latitude Longitude Leg Dist Tot Dist Heading (true) Name
O KPNS APT - 0 ft / 0 m 30.47343˚ -87.18661˚ - 0 nm - Pensacola Rgnl
HOOCK FIX - 0 ft / 0 m 28.22906˚ -88.66727˚ 155 nm 155 nm 210° / 210° -
PISAD FIX - 0 ft / 0 m 24.28861˚ -87.14028˚ 250 nm 406 nm 160° / 161° -
NUDIS FIX - 0 ft / 0 m 23.44444˚ -87.78889˚ 61 nm 467 nm 215° / 215° -
CUN VOR - 0 ft / 0 m 21.02511˚ -86.85872˚ 154 nm 622 nm 160° / 161° CANCUN VOR-DME
CZM NDB - 0 ft / 0 m 20.52195˚ -86.93393˚ 30 nm 652 nm 188° / 188° COZUMEL NDB
TAMDA FIX - 0 ft / 0 m 17.92000˚ -88.14000˚ 170 nm 823 nm 204° / 203° -
O MZBZ APT - 0 ft / 0 m 17.53914˚ -88.30820˚ 24 nm 848 nm 203° / 203° Philip S W Goldson Intl

Altitude Profile

Advertisement - Login to hide

Weather


0- 5 10 15 20 25 30 35+ Temperature / ° C

Clouds and Precipitation
Forecast for 2017-05-30 00:00 UTC. Updated 2 hours ago

Ground ~20,000 ft ~40,000 ft Winds

KPNS

Details ICAO KPNS (PNS)
Name Pensacola Rgnl
Region United States
Timezone America/Chicago (UTC-5.0)
Stats Elevation 121 ft / 37 m (AMSL)
Location 30.473426° -87.186612°
Runways 2
Magnetic Variation 2.762° W

METAR

KPNS 300053Z 22006KT 10SM CLR 27/22 A3003 RMK AO2 SLP171 T02720222

Decode

TAF

TAF KPNS 292320Z 3000/3024 19009KT P6SM BKN150 OVC250 FM300500 23005KT P6SM VCSH BKN150 OVC250 FM301500 04010KT P6SM OVC050

Decode

Departure Runways

ID Width Length Bearing (true) Bearing (mag) Surface Threshold Offset Overrun Length
08 150 ft / 46 m 6,991 ft / 2,131 m 78.00° 80.76° Asphalt 0 ft / 0 m 0 ft / 0 m
17 150 ft / 46 m 7,025 ft / 2,141 m 167.05° 169.81° Asphalt 0 ft / 0 m 0 ft / 0 m
26 150 ft / 46 m 6,991 ft / 2,131 m 258.01° 260.77° Asphalt 0 ft / 0 m 0 ft / 0 m
35 150 ft / 46 m 7,025 ft / 2,141 m 347.05° 349.81° Asphalt 0 ft / 0 m 0 ft / 0 m

MZBZ

Details ICAO MZBZ (BZE)
Name Philip S W Goldson Intl
Region Belize
Timezone America/Belize (UTC-6.0)
Stats Elevation 15 ft / 5 m (AMSL)
Location 17.539144° -88.308201°
Runways 1
Magnetic Variation 0.483° W

METAR

MZBZ 300100Z 10008KT 9999 SCT018 28/25 A2992 Q1013 NOSIG

Decode

TAF

Not found

Destination Runways

ID Width Length Bearing (true) Bearing (mag) Surface Threshold Offset Overrun Length
07 150 ft / 46 m 7,097 ft / 2,163 m 76.65° 77.13° Asphalt 0 ft / 0 m 200 ft / 61 m
25 150 ft / 46 m 7,097 ft / 2,163 m 256.66° 257.14° Asphalt 0 ft / 0 m 200 ft / 61 m

Popular Alternatives